Stündliche Wetter Chemnitz

Heute, 8 Mai, Samstag

Zeit Temperatur Niederschläge Wind Luftdruck Luftfeuchtigkeit
00:00 0°C° 0 mm 3 m/S 736 mmHg 89%
01:00 0°C° 0 mm 3 m/S 736 mmHg 89%
02:00 0°C° 0 mm 3 m/S 736 mmHg 88%
03:00 0°C° 0 mm 3 m/S 736 mmHg 87%
04:00 0°C° 0 mm 3 m/S 736 mmHg 86%
05:00 +1°C° 0 mm 3 m/S 736 mmHg 80%
06:00 +3°C° 0 mm 3 m/S 736 mmHg 73%
07:00 +5°C° 0 mm 4 m/S 736 mmHg 67%
08:00 +6°C° 0 mm 4 m/S 736 mmHg 60%
09:00 +8°C° 0 mm 4 m/S 736 mmHg 54%
10:00 +10°C° 0 mm 5 m/S 736 mmHg 47%
11:00 +11°C° 0 mm 4 m/S 736 mmHg 45%
12:00 +12°C° 0 mm 4 m/S 736 mmHg 44%
13:00 +12°C° 0 mm 3 m/S 736 mmHg 42%
14:00 +13°C° 0 mm 3 m/S 735 mmHg 42%
15:00 +13°C° 0 mm 3 m/S 735 mmHg 43%
16:00 +14°C° 0 mm 2 m/S 734 mmHg 43%
17:00 +13°C° 0 mm 2 m/S 734 mmHg 50%
18:00 +12°C° 0 mm 2 m/S 734 mmHg 57%
19:00 +10°C° 0 mm 2 m/S 734 mmHg 64%
20:00 +10°C° 0 mm 2 m/S 734 mmHg 63%
21:00 +10°C° 0 mm 2 m/S 734 mmHg 63%
22:00 +9°C° 0 mm 2 m/S 734 mmHg 63%
23:00 +9°C° 0 mm 3 m/S 733 mmHg 63%

Morgen, 9 Mai, Sonntag

Zeit Temperatur Niederschläge Wind Luftdruck Luftfeuchtigkeit
00:00 +10°C° 0 mm 3 m/S 733 mmHg 63%
01:00 +10°C° 0 mm 4 m/S 733 mmHg 63%
02:00 +8°C° 0 mm 4 m/S 733 mmHg 67%
03:00 +8°C° 0 mm 3 m/S 732 mmHg 70%
04:00 +7°C° 0 mm 3 m/S 732 mmHg 74%
05:00 +9°C° 0 mm 3 m/S 732 mmHg 72%
06:00 +10°C° 0 mm 3 m/S 732 mmHg 70%
07:00 +12°C° 0 mm 4 m/S 732 mmHg 69%
08:00 +14°C° 0 mm 4 m/S 732 mmHg 63%
09:00 +17°C° 0 mm 4 m/S 732 mmHg 57%
10:00 +20°C° 0 mm 5 m/S 732 mmHg 51%
11:00 +21°C° 0 mm 5 m/S 731 mmHg 48%
12:00 +22°C° 0 mm 4 m/S 731 mmHg 46%
13:00 +23°C° 0 mm 4 m/S 731 mmHg 44%
14:00 +23°C° 0 mm 4 m/S 731 mmHg 46%
15:00 +23°C° 0 mm 4 m/S 731 mmHg 49%
16:00 +23°C° 0 mm 4 m/S 730 mmHg 52%
17:00 +21°C° 0 mm 4 m/S 730 mmHg 59%
18:00 +20°C° 0 mm 4 m/S 730 mmHg 66%
19:00 +17°C° 0 mm 5 m/S 730 mmHg 73%
20:00 +16°C° 0 mm 5 m/S 729 mmHg 75%
21:00 +14°C° 0 mm 5 m/S 729 mmHg 78%
22:00 +13°C° 0 mm 5 m/S 729 mmHg 81%
23:00 +12°C° 0 mm 4 m/S 729 mmHg 82%

übermorgen, 10 Mai, Montag

Zeit Temperatur Niederschläge Wind Luftdruck Luftfeuchtigkeit
00:00 +11°C° 0 mm 4 m/S 729 mmHg 84%
01:00 +10°C° 0 mm 4 m/S 728 mmHg 85%
02:00 +10°C° 0 mm 3 m/S 728 mmHg 87%
03:00 +9°C° 0 mm 3 m/S 728 mmHg 89%
04:00 +8°C° 0 mm 3 m/S 728 mmHg 90%
05:00 +10°C° 0 mm 3 m/S 728 mmHg 86%
06:00 +11°C° 0 mm 3 m/S 728 mmHg 81%
07:00 +13°C° 0 mm 3 m/S 727 mmHg 76%
08:00 +16°C° 0 mm 3 m/S 728 mmHg 70%
09:00 +19°C° 0 mm 3 m/S 728 mmHg 64%
10:00 +21°C° 0 mm 4 m/S 728 mmHg 58%
11:00 +22°C° 0 mm 3 m/S 729 mmHg 56%
12:00 +25°C° 0 mm 3 m/S 729 mmHg 54%
13:00 +26°C° 0 mm 3 m/S 729 mmHg 51%
14:00 +26°C° 0 mm 3 m/S 729 mmHg 54%
15:00 +26°C° 0 mm 2 m/S 729 mmHg 56%
16:00 +25°C° 0 mm 2 m/S 730 mmHg 59%
17:00 +23°C° 0.1 mm 2 m/S 730 mmHg 67%
18:00 +21°C° 0.1 mm 2 m/S 730 mmHg 75%
19:00 +19°C° 0.1 mm 2 m/S 730 mmHg 83%
20:00 +18°C° 0 mm 2 m/S 729 mmHg 86%
21:00 +17°C° 0 mm 2 m/S 729 mmHg 89%
22:00 +15°C° 0 mm 2 m/S 729 mmHg 93%
23:00 +15°C° 0 mm 1 m/S 728 mmHg 93%

11 Mai, Dienstag

Zeit Temperatur Niederschläge Wind Luftdruck Luftfeuchtigkeit
00:00 +15°C° 0 mm 1 m/S 728 mmHg 94%
01:00 +14°C° 0 mm 1 m/S 727 mmHg 95%
02:00 +14°C° 0 mm 1 m/S 727 mmHg 95%
03:00 +14°C° 0 mm 1 m/S 727 mmHg 96%
04:00 +13°C° 0 mm 1 m/S 727 mmHg 96%
05:00 +14°C° 0 mm 2 m/S 727 mmHg 96%
06:00 +14°C° 0 mm 2 m/S 727 mmHg 95%
07:00 +13°C° 0 mm 3 m/S 728 mmHg 94%
08:00 +13°C° 0 mm 3 m/S 728 mmHg 94%
09:00 +13°C° 0 mm 3 m/S 728 mmHg 94%
10:00 +14°C° 0 mm 2 m/S 728 mmHg 93%
11:00 +14°C° 0 mm 2 m/S 728 mmHg 92%
12:00 +15°C° 0 mm 2 m/S 728 mmHg 91%
13:00 +15°C° 0 mm 2 m/S 728 mmHg 89%
14:00 +15°C° 0 mm 2 m/S 728 mmHg 89%
15:00 +14°C° 0 mm 3 m/S 728 mmHg 88%
16:00 +14°C° 0 mm 3 m/S 728 mmHg 87%
17:00 +13°C° 0.3 mm 3 m/S 728 mmHg 90%
18:00 +13°C° 0.3 mm 3 m/S 727 mmHg 93%
19:00 +13°C° 0.3 mm 2 m/S 727 mmHg 96%
20:00 +13°C° 1.2 mm 2 m/S 727 mmHg 97%
21:00 +11°C° 1.2 mm 3 m/S 727 mmHg 98%
22:00 +11°C° 1.2 mm 3 m/S 727 mmHg 98%
23:00 +10°C° 0.4 mm 3 m/S 727 mmHg 98%

12 Mai, Mittwoch

Zeit Temperatur Niederschläge Wind Luftdruck Luftfeuchtigkeit
00:00 +10°C° 0.4 mm 3 m/S 727 mmHg 98%
01:00 +10°C° 0.4 mm 3 m/S 726 mmHg 98%
02:00 +9°C° 0.5 mm 3 m/S 727 mmHg 98%
03:00 +9°C° 0.5 mm 3 m/S 727 mmHg 98%
04:00 +9°C° 0.5 mm 3 m/S 727 mmHg 98%
05:00 +9°C° 0.7 mm 3 m/S 727 mmHg 98%
06:00 +9°C° 0.7 mm 3 m/S 727 mmHg 98%
07:00 +8°C° 0.7 mm 3 m/S 728 mmHg 98%
08:00 +9°C° 0.3 mm 3 m/S 728 mmHg 98%
09:00 +9°C° 0.3 mm 3 m/S 728 mmHg 97%
10:00 +9°C° 0.3 mm 3 m/S 729 mmHg 97%
11:00 +9°C° 0.2 mm 3 m/S 729 mmHg 97%
12:00 +9°C° 0.2 mm 3 m/S 729 mmHg 97%
13:00 +9°C° 0.2 mm 3 m/S 729 mmHg 97%
14:00 +9°C° 0.1 mm 3 m/S 730 mmHg 96%
15:00 +9°C° 0.1 mm 2 m/S 730 mmHg 96%
16:00 +9°C° 0.1 mm 2 m/S 730 mmHg 96%
17:00 +9°C° 0.2 mm 2 m/S 730 mmHg 96%
18:00 +9°C° 0.2 mm 2 m/S 730 mmHg 96%
19:00 +9°C° 0.2 mm 3 m/S 730 mmHg 96%
20:00 +9°C° 1 mm 3 m/S 730 mmHg 97%
21:00 +8°C° 1 mm 3 m/S 730 mmHg 97%
22:00 +8°C° 1 mm 3 m/S 730 mmHg 97%
23:00 +8°C° 0.5 mm 3 m/S 730 mmHg 97%

13 Mai, Donnerstag

Zeit Temperatur Niederschläge Wind Luftdruck Luftfeuchtigkeit
00:00 +8°C° 0.5 mm 3 m/S 730 mmHg 97%
01:00 +7°C° 0.5 mm 4 m/S 730 mmHg 96%
02:00 +7°C° 1.6 mm 4 m/S 729 mmHg 97%
03:00 +7°C° 1.6 mm 4 m/S 729 mmHg 97%
04:00 +7°C° 1.6 mm 5 m/S 729 mmHg 97%
05:00 +6°C° 0.7 mm 5 m/S 729 mmHg 97%
06:00 +6°C° 0.7 mm 4 m/S 729 mmHg 97%
07:00 +6°C° 0.7 mm 4 m/S 729 mmHg 97%
08:00 +6°C° 0.2 mm 4 m/S 729 mmHg 97%
09:00 +6°C° 0.2 mm 4 m/S 729 mmHg 97%
10:00 +6°C° 0.2 mm 4 m/S 729 mmHg 97%
11:00 +6°C° 0.3 mm 4 m/S 729 mmHg 97%
12:00 +6°C° 0.3 mm 4 m/S 729 mmHg 97%
13:00 +7°C° 0.3 mm 4 m/S 729 mmHg 97%
14:00 +8°C° 0.1 mm 3 m/S 729 mmHg 97%
15:00 +8°C° 0.1 mm 3 m/S 729 mmHg 98%
16:00 +8°C° 0.1 mm 3 m/S 729 mmHg 98%
17:00 +8°C° 0 mm 3 m/S 729 mmHg 98%
18:00 +8°C° 0 mm 2 m/S 729 mmHg 98%
19:00 +8°C° 0 mm 2 m/S 729 mmHg 98%
20:00 +8°C° 0 mm 2 m/S 729 mmHg 98%
21:00 +8°C° 0 mm 2 m/S 729 mmHg 98%
22:00 +8°C° 0 mm 2 m/S 729 mmHg 98%
23:00 +8°C° 0 mm 2 m/S 729 mmHg 98%
Mehr zeigen

Wir brauchen deine Erlaubnis

Meteoprog und unser Service Anbieter werden persönliche Daten aufbewahren, so wie Cookies, Geräte Bezeichnung oder ähnliche Technologien von deinem Gerät und Prozess, so wie Persönliche Daten Inhalte und Werbungen, genauso wie social Media und den Verkehr zu analysieren.

  • Aufbewahrung und/oder Zugang zu deiner Geräte Informationen.

    Cookies, Geräte Bezeichnung oder andere Informationen, können aufbewahrt oder Zugang zu deinem Gerät erhalten, für den Grund, der oben angegeben wird.

  • Personalisierte Werbung und Inhalte, Messungen, Einblick in das Publikum und Produkt Entwicklung.

    Werbungen und Inhalte können personalisiert werden, basierend auf ein Profil. Mehr Daten können besser personalisierte Werbungen und Inhalte hinzufügen. Werbung und Inhalte können gezeigt und gemessen werden. Einblicke über das Publikum, welche die Werbung gesehen haben und den Inhalt, können abgeleitet werden. So wie Daten können genutzt werden, um es zu verbessern oder die Benutzer Erfahrung zu verbessern das System und die Software.

Wenn du “Ich stimme zu” klickst, erlaubst du uns, die Cookies zu benutzen die Geräte Bezeichnung, den Web oder ähnliche Technologien zu benutzen. Deine Settings, können in deinem Gerät bei deinem Browser geändert werden.

Für den bestimmten Zweck, berechtigten Interessen beruhen darauf, mehr als auf den Inhalt. Du kannst mehr darüber in unseren Privaten und Cookie Politik lesen.